Regional Weather Roundup
Issued by NWS

Home | Current Version | Previous Version | Text Only | Print | Product List | Glossary Off
Versions: 1 2 3 4 5 6 7 8 9 10 11 12 13 14 15 16 17 18 19 20 21 22 23 24 25 26 27 28 29 30 31 32 33 34 35 36 37 38 39 40 41 42 43 44 45 46 47 48

000
ASUS45 KBOU 182010
RWRCO

WEATHER ROUNDUP FOR COLORADO
NATIONAL WEATHER SERVICE PUEBLO CO
200 PM MDT WED APR 18 2018

NOTE: "FAIR" INDICATES FEW OR NO CLOUDS BELOW 12000 FEET WITH NO
SIGNIFICANT WEATHER AND/OR OBSTRUCTIONS TO VISIBILITY.

COZ001>005-013-030-031-182100-
...NORTHWEST COLORADO...

CITY           SKY/WX    TMP DP  RH WIND       PRES   REMARKS
CRAIG          SUNNY     45  18  34 E12       30.26F
HAYDEN         NOT AVBL
MEEKER         MOSUNNY   47   4  17 NE7       30.23F
RABBIT EARS PA NOT AVBL
STEAMBOAT SPGS FAIR      39  11  31 W5        30.26F
WALDEN         FAIR      39   5  24 SE3       30.27S
$$

COZ006>008-011-182100-
...WEST CENTRAL VALLEYS...

CITY           SKY/WX    TMP DP  RH WIND       PRES   REMARKS
GRAND JUNCTION SUNNY     54  12  18 SE9       30.20F
MONTROSE       SUNNY     52   5  15 N5        30.21F
EAGLE          SUNNY     46   4  17 W5        30.25F
RIFLE          SUNNY     52  10  18 NE7       30.22F
DELTA          NOT AVBL
NUCLA          NOT AVBL
$$

COZ017>023-064>068-182100-
...SOUTHWEST COLORADO...

CITY           SKY/WX    TMP DP  RH WIND       PRES   REMARKS
DURANGO        SUNNY     53  -2  10 S5        30.23F
CORTEZ         SUNNY     55  -3   9 SW14G23   30.21F
PAGOSA SPRINGS FAIR      52  -8   8 SW5       30.24S
TELLURIDE      SUNNY     49  -1  13 W10       30.23S
WOLF CREEK PAS SUNNY     32   3  29 SW14G21   30.37R WCI  22
$$

COZ009-010-012-014-032>034-037-058>063-182100-
...CENTRAL COLORADO...

CITY           SKY/WX    TMP DP  RH WIND       PRES   REMARKS
ASPEN          SUNNY     47   0  14 CALM      30.20F
BUENA VISTA    FAIR      48  -3  11 E6        30.22F
COPPER MTN     NOT AVBL
BERTHOUD PASS  FAIR      21  10  63 W7G16     30.29S WCI  13
COTTONWOOD PAS SUNNY     46  -2  13 CALM      30.26S
GUNNISON       SUNNY     47  -3  12 VRB5      30.21F
KREMMLING      SUNNY     50   1  13 E6        30.26F
LEADVILLE      SUNNY     34  -3  20 VRB3      30.24F
MONARCH PASS   NOT AVBL
SALIDA         FAIR      52  -3  10 CALM      30.29F
SUNLIGHT       SUNNY     30  10  43 S3        30.30F
WILKERSON PASS SUNNY     36 -13  12 SW7       30.31S
$$

COZ069>075-182100-
...SAN LUIS VALLEY/SANGRE DE CRISTO MOUNTAINS...

CITY           SKY/WX    TMP DP  RH WIND       PRES   REMARKS
ALAMOSA        SUNNY     47  -4  12 VRB5      30.25F
DEL NORTE      FAIR      48   7  18 SE12      30.25F
LA VETA PASS   SUNNY     43   3  19 E3        30.40S
SAGUACHE       NOT AVBL
$$

COZ035-036-038>040-182100-
...NORTHERN COLORADO FRONT RANGE...

CITY           SKY/WX    TMP DP  RH WIND       PRES   REMARKS
DENVER INTL AP MOSUNNY   53  11  18 NE16      30.24S
DMNS CITY PARK NOT AVBL
AURORA         MOSUNNY   52   4  14 E8        30.24F
FRONT RANGE AP NOT AVBL
ERIE MUNI ARPT FAIR      55   5  13 E9        30.28S
BOULDER MUN AP FAIR      54  10  17 E8        30.21F
CENTENNIAL     MOSUNNY   50   8  18 E8        30.23F
BROOMFIELD     MOSUNNY   54   7  15 S8        30.23F
LOVELAND       SUNNY     54  10  17 W7        30.23
LONGMONT       FAIR      59  10  14 SE7G16    30.23F
$$

COZ041-046-047-076>085-087-088-182100-
...PIKES PEAK/PALMER DIVIDE AND SOUTHERN FOOTHILLS...

CITY           SKY/WX    TMP DP  RH WIND       PRES   REMARKS
COLO. SPRINGS  MOSUNNY   52   1  12 S9        30.24F
A. F. ACADEMY  MOSUNNY   53  -3  10 SE12G20   30.22F
SCHRIEVER AFB  NOT AVBL
CHEYENNE MTN   NOT AVBL
ELLICOTT         N/A    N/A N/A N/A VRB3      30.24F
FALCON         FAIR      52  -3  10 NE6       30.25F
FORT CARSON    SUNNY     54  -6   8 SE8G18    30.22F
LIMON          SUNNY     52   7  16 N18G36    30.25R
MONUMENT HILL  SUNNY     46   1  15 E9        30.26S
CANON CITY     FAIR      59   1  10 E8        30.21S
WALSENBURG     FAIR      57   3  11 E8        30.23F
TRINIDAD       SUNNY     55  -2   9 E9        30.24F
$$

COZ042>045-048>051-090-091-182100-
...NORTHEAST COLORADO...

CITY           SKY/WX    TMP DP  RH WIND       PRES   REMARKS
GREELEY ARPT   SUNNY     56  11  16 N12G25    30.23S
AKRON          SUNNY     52  19  27 N28G39    30.22S
BURLINGTON     SUNNY     57  17  21 NW26G38   30.22R
WRAY           FAIR      59  21  23 N24G39    30.21S
YUMA           NOT AVBL
STERLING       FAIR      55  21  26 N23G30    30.21S
HOLYOKE        FAIR      59  27  29 N26       30.20S
FORT MORGAN    FAIR      57   8  14 N18G29    30.24S
$$

COZ086-089-092>099-182100-
...SOUTHEAST COLORADO...

CITY           SKY/WX    TMP DP  RH WIND       PRES   REMARKS
PUEBLO         SUNNY     59   1   9 VRB6G17   30.23F
LA JUNTA       SUNNY     60   1   9 VRB5G20   30.24F
LAMAR          SUNNY     62   7  11 NW13G29   30.21F
SPRINGFIELD      N/A     60   7  12 N16G33    30.24S
$$





USA.gov is the U.S. government's official web portal to all federal, state and local government web resources and services.